Weather History for KD39 - September, 2013

Change the Weather History Date:

Tuesday, September 17, 2013

  Actual Average (KGHW) Record (KGHW)
Temperature  
Mean Temperature 53 °F -  
Max Temperature 60 °F 71 °F 94 °F (1955)
Min Temperature 46 °F 46 °F 36 °F (1959)
Degree Days  
Heating Degree Days 12    
Growing Degree Days 3 (Base 50)    
Moisture  
Dew Point 50 °F    
Average Humidity 88    
Maximum Humidity 100    
Minimum Humidity 72    
Precipitation  
Precipitation 0.00 in - - ()
Sea Level Pressure  
Sea Level Pressure 30.06 in    
Wind  
Wind Speed 10 mph (SE)    
Max Wind Speed 21 mph    
Max Gust Speed 26 mph    
Visibility 10 miles    
Events      
Averages and records for this station are not official NWS values.
T = Trace of Precipitation, MM = Missing Value Source: NWS Daily Summary

Daily Weather History Graph

Daily Weather History Graph

Search for Another Location

Airport or City:

Trip Planner

Search our weather history database for the weather conditions in past years. The results will help you decide how hot, cold, wet, or windy it might be!

Date:

Astronomy

Sep. 17, 2013 Rise Set
Actual Time 7:00 AM CDT 7:26 PM CDT
Civil Twilight 6:31 AM CDT 7:56 PM CDT
Nautical Twilight 5:55 AM CDT 8:31 PM CDT
Astronomical Twilight 5:19 AM CDT 9:07 PM CDT
Moon 6:16 PM CDT (9/17) 4:52 AM CDT (9/17)
Length of Visible Light 13h 25m
Length of Day
12h 25m
Waxing Gibbous, 96% of the Moon is Illuminated
Sep 17
Waxing Gibbous
Sep 19
Full
Sep 26
Last Quarter
Oct 4
New
Oct 11
First Quarter

Hourly Weather History & Observations

Time (CDT) Temp. Windchill Dew Point Humidity Pressure Visibility Wind Dir Wind Speed Gust Speed Precip Events Conditions
12:05 AM 51.8 °F - 46.4 °F 82% 30.21 in 10.0 mi SE 9.2 mph - N/A   Clear
12:25 AM 50.0 °F - 44.6 °F 82% 30.21 in 10.0 mi SSE 8.1 mph - N/A   Clear
1:05 AM 48.2 °F - 44.6 °F 87% 30.21 in 10.0 mi SSE 6.9 mph - N/A   Clear
1:25 AM 48.2 °F - 44.6 °F 87% 30.20 in 10.0 mi SSE 6.9 mph - N/A   Clear
1:45 AM 48.2 °F - 44.6 °F 87% 30.20 in 10.0 mi SE 6.9 mph - N/A   Clear
2:05 AM 48.2 °F - 44.6 °F 87% 30.20 in 10.0 mi SE 5.8 mph - N/A   Clear
2:25 AM 46.4 °F 44.3 °F 44.6 °F 93% 30.19 in 10.0 mi SE 4.6 mph - N/A   Clear
2:45 AM 46.4 °F 44.3 °F 44.6 °F 93% 30.19 in 10.0 mi SE 4.6 mph - N/A   Clear
3:05 AM 46.4 °F 44.3 °F 44.6 °F 93% 30.19 in 10.0 mi SSE 4.6 mph - N/A   Clear
3:25 AM 46.4 °F 44.3 °F 44.6 °F 93% 30.19 in 10.0 mi SE 4.6 mph - N/A   Clear
3:45 AM 46.4 °F 43.5 °F 44.6 °F 93% 30.18 in 10.0 mi SE 5.8 mph - N/A   Clear
4:05 AM 46.4 °F 43.5 °F 44.6 °F 93% 30.18 in 10.0 mi SE 5.8 mph - N/A   Clear
4:25 AM 46.4 °F 42.9 °F 44.6 °F 93% 30.17 in 10.0 mi SE 6.9 mph - N/A   Clear
4:45 AM 46.4 °F 42.9 °F 44.6 °F 93% 30.17 in 10.0 mi SE 6.9 mph - N/A   Clear
5:05 AM 46.4 °F 42.9 °F 44.6 °F 93% 30.16 in 10.0 mi SE 6.9 mph - N/A   Scattered Clouds
5:25 AM 46.4 °F 42.4 °F 44.6 °F 93% 30.15 in 10.0 mi SE 8.1 mph - N/A   Scattered Clouds
5:45 AM 46.4 °F 42.9 °F 44.6 °F 93% 30.15 in 10.0 mi ESE 6.9 mph - N/A   Clear
6:05 AM 46.4 °F 42.4 °F 44.6 °F 93% 30.14 in 10.0 mi ESE 8.1 mph - N/A   Clear
6:25 AM 46.4 °F 42.4 °F 44.6 °F 93% 30.14 in 10.0 mi ESE 8.1 mph - N/A   Mostly Cloudy
6:45 AM 48.2 °F - 46.4 °F 93% 30.14 in 10.0 mi SE 10.4 mph - N/A   Overcast
7:05 AM 48.2 °F - 46.4 °F 93% 30.13 in 10.0 mi SE 8.1 mph - N/A   Overcast
7:25 AM 50.0 °F - 48.2 °F 94% 30.13 in 10.0 mi SE 9.2 mph - N/A   Overcast
7:45 AM 50.0 °F - 48.2 °F 94% 30.13 in 10.0 mi SE 8.1 mph - N/A   Overcast
8:05 AM 50.0 °F - 48.2 °F 94% 30.13 in 10.0 mi SE 10.4 mph - N/A   Overcast
8:25 AM 50.0 °F - 48.2 °F 94% 30.13 in 10.0 mi SE 9.2 mph - N/A   Overcast
8:45 AM 50.0 °F - 48.2 °F 94% 30.12 in 10.0 mi SE 11.5 mph 16.1 mph N/A   Overcast
9:05 AM 51.8 °F - 48.2 °F 88% 30.11 in 10.0 mi SE 11.5 mph - N/A   Overcast
9:25 AM 51.8 °F - 50.0 °F 94% 30.11 in 10.0 mi SE 10.4 mph - N/A   Overcast
9:45 AM 51.8 °F - 50.0 °F 94% 30.11 in 10.0 mi SE 13.8 mph - N/A   Overcast
10:05 AM 53.6 °F - 50.0 °F 88% 30.10 in 10.0 mi SSE 13.8 mph - N/A   Overcast
10:25 AM 53.6 °F - 50.0 °F 88% 30.09 in 10.0 mi SSE 13.8 mph 18.4 mph N/A   Overcast
10:45 AM 55.4 °F - 50.0 °F 82% 30.09 in 10.0 mi SE 15.0 mph 19.6 mph N/A   Overcast
11:05 AM 57.2 °F - 50.0 °F 77% 30.09 in 10.0 mi SE 15.0 mph 18.4 mph N/A   Overcast
11:25 AM 57.2 °F - 51.8 °F 82% 30.07 in 10.0 mi SE 17.3 mph 24.2 mph N/A   Overcast
11:45 AM 59.0 °F - 51.8 °F 77% 30.07 in 10.0 mi SSE 16.1 mph 19.6 mph N/A   Overcast
12:05 PM 59.0 °F - 51.8 °F 77% 30.06 in 10.0 mi SSE 18.4 mph 23.0 mph N/A   Overcast
12:25 PM 60.8 °F - 51.8 °F 72% 30.05 in 10.0 mi SSE 20.7 mph 25.3 mph N/A   Overcast
12:45 PM 60.8 °F - 51.8 °F 72% 30.05 in 10.0 mi SSE 18.4 mph 24.2 mph N/A   Overcast
1:05 PM 59.0 °F - 51.8 °F 77% 30.05 in 10.0 mi SSE 16.1 mph 21.9 mph N/A   Overcast
1:25 PM 59.0 °F - 53.6 °F 82% 30.04 in 10.0 mi SSE 16.1 mph 19.6 mph N/A   Overcast
1:45 PM 60.8 °F - 53.6 °F 77% 30.03 in 10.0 mi SE 15.0 mph 21.9 mph N/A   Overcast
2:05 PM 60.8 °F - 53.6 °F 77% 30.02 in 10.0 mi SSE 18.4 mph 24.2 mph N/A   Overcast
2:25 PM 60.8 °F - 53.6 °F 77% 30.01 in 10.0 mi SSE 16.1 mph 21.9 mph N/A   Overcast
2:45 PM 60.8 °F - 53.6 °F 77% 30.00 in 10.0 mi SSE 16.1 mph 19.6 mph N/A   Overcast
3:05 PM 60.8 °F - 53.6 °F 77% 29.99 in 10.0 mi SSE 18.4 mph 25.3 mph N/A   Overcast
3:25 PM 60.8 °F - 53.6 °F 77% 29.99 in 10.0 mi SSE 19.6 mph 26.5 mph N/A   Overcast
3:45 PM 60.8 °F - 53.6 °F 77% 29.98 in 10.0 mi SSE 18.4 mph 24.2 mph N/A   Overcast
4:05 PM 59.0 °F - 53.6 °F 82% 29.98 in 10.0 mi SE 13.8 mph 18.4 mph N/A   Overcast
4:25 PM 59.0 °F - 53.6 °F 82% 29.97 in 10.0 mi SSE 15.0 mph 21.9 mph N/A   Overcast
4:45 PM 59.0 °F - 53.6 °F 82% 29.97 in 10.0 mi SSE 15.0 mph 19.6 mph N/A   Overcast
5:05 PM 59.0 °F - 53.6 °F 82% 29.97 in 10.0 mi SSE 12.7 mph 21.9 mph N/A   Overcast
5:25 PM 59.0 °F - 53.6 °F 82% 29.96 in 10.0 mi SSE 13.8 mph 24.2 mph N/A   Overcast
5:45 PM 59.0 °F - 53.6 °F 82% 29.96 in 10.0 mi SE 15.0 mph - N/A   Overcast
6:05 PM 59.0 °F - 53.6 °F 82% 29.95 in 10.0 mi SSE 13.8 mph - N/A   Overcast
6:25 PM 59.0 °F - 53.6 °F 82% 29.94 in 10.0 mi SSE 17.3 mph 23.0 mph N/A   Overcast
6:45 PM 59.0 °F - 53.6 °F 82% 29.94 in 10.0 mi SSE 12.7 mph 18.4 mph N/A   Overcast
7:05 PM 59.0 °F - 53.6 °F 82% 29.94 in 10.0 mi SSE 10.4 mph - N/A   Overcast
7:25 PM 57.2 °F - 53.6 °F 88% 29.94 in 10.0 mi SSE 13.8 mph 17.3 mph N/A   Overcast
7:45 PM 57.2 °F - 53.6 °F 88% 29.94 in 10.0 mi SSE 8.1 mph - N/A   Overcast
8:05 PM 57.2 °F - 53.6 °F 88% 29.92 in 10.0 mi SE 16.1 mph 19.6 mph N/A   Overcast
8:25 PM 57.2 °F - 53.6 °F 88% 29.93 in 10.0 mi SE 15.0 mph 21.9 mph N/A   Overcast
8:45 PM 57.2 °F - 53.6 °F 88% 29.94 in 10.0 mi SE 11.5 mph 18.4 mph N/A   Overcast
9:05 PM 57.2 °F - 53.6 °F 88% 29.94 in 10.0 mi SSE 10.4 mph 20.7 mph N/A   Overcast
9:25 PM 55.4 °F - 55.4 °F 100% 29.93 in 7.0 mi SSE 11.5 mph - N/A   Overcast
9:45 PM 55.4 °F - 55.4 °F 100% 29.93 in 4.0 mi SSE 9.2 mph - N/A   Overcast
10:05 PM 55.4 °F - 55.4 °F 100% 29.92 in 3.0 mi SE 9.2 mph - N/A   Overcast
10:25 PM 55.4 °F - 55.4 °F 100% 29.92 in 4.0 mi SE 9.2 mph - N/A   Overcast
10:45 PM 55.4 °F - 55.4 °F 100% 29.92 in 7.0 mi SSE 8.1 mph - N/A   Overcast
11:05 PM 55.4 °F - 55.4 °F 100% 29.92 in 7.0 mi SSE 8.1 mph - N/A   Overcast
11:25 PM 55.4 °F - 55.4 °F 100% 29.91 in 5.0 mi SSE 8.1 mph - N/A   Overcast
11:45 PM 55.4 °F - 55.4 °F 100% 29.91 in 4.0 mi SSE 9.2 mph - N/A   Overcast